FENGYUN 1C DEB, 41005

Orbit data source: Space-Track

FENGYUN 1C DEB, 41005 is space debris in SSO originally from a launch on Mon, 10 May 1999 UTC launched from the Taiyaun Space Center, China (TSC). Fengyun 1C debris stems from the Chinese weather satellite Fengyun-1C, which was intentionally destroyed by a Chinese anti-satellite missile in 2007. This event dramatically increased the amount of space debris, with thousands of trackable fragments posing hazards to satellites and human spaceflight. The Fengyun 1C debris cloud has become a focal point in discussions about space sustainability and the need for international regulations to prevent the creation of new debris.

Loading next visibility...
Identifier
41005, 1999-025EXK
Orbit
SSO
Country
Flag of CNCN / PRC
Related business
Manufacturer
Unknown
Mission
Spacecraft
Bus & Motor
Unknown
Mass
Unknown
Launch date (UTC)
1999-05-10 (27 years ago)
Launch vehicle
Unknown
Launch site
Taiyaun Space Center, China (TSC)
Object type
Payload
Rocket body
Debris
Shape & HBR
Unknown shape, 0.1 m
Radar Cross Section
Small (<0.1 m²)

Expand to show TLE details & history
Last TLE update: 3 weeks ago

TLE from 3 weeks ago
0 FENGYUN 1C DEB
1 41005U 99025EXK 26089.32452902  .00002279  00000-0  12678-2 0  9993
2 41005  98.9483 122.5123 0572295 178.1770 182.1644 13.51143316538336
Epoch: 2026-03-30T07:47Z
TLE epoch observation values (Epoch: 2026-03-30T07:47:19.307Z)
Latitude
-0.00004°
Longitude
177.96416°
Altitude
1,496.828 km
Speed
6.909 km/s
True Right ascension
08h 10m 02s
True Declination
0° 00' 00"
Sunlit
Object was in daylight at epoch
Visualization orbit readout
Latitude
Unknown
Longitude
Unknown
Altitude
Unknown
Speed
Unknown
Apparent Right ascension
Unknown
Apparent Declination
Unknown
Sunlit
N/A
Visualization observer readout
Local Sidereal Time
19:23:26
Azimuth
Unknown
Elevation
Unknown
Doppler factor
Unknown
Orbital elements
Apogee altitude
1,491.289 km
Perigee altitude
639.32 km
Semi-major axis
7,443.441 km
Eccentricity
0.05723
Inclination
98.9483°
RAAN
122.5123°
Arg. of periapsis
178.177°
True anomaly
181.93329°
Mean anomaly
182.1644°
Eccentric anomaly
182.04726°
Mean motion
3.37973 °/min
Orbital period
106.52 mins
BSTAR
0.0012678
Loading maneuver chart data...
Computing Atmospheric mass density...

Documentation

Showing up to 5 results
|